Stündliche Wetter Abikanda

Heute, 23 Juni, Mittwoch

Zeit Temperatur Niederschläge Wind Luftdruck Luftfeuchtigkeit
00:00 +20°C° 0 mm 2 m/S 665 mmHg 30%
01:00 +20°C° 0 mm 3 m/S 665 mmHg 30%
02:00 +20°C° 0 mm 3 m/S 665 mmHg 30%
03:00 +19°C° 0 mm 3 m/S 665 mmHg 30%
04:00 +19°C° 0 mm 3 m/S 665 mmHg 30%
05:00 +21°C° 0 mm 2 m/S 665 mmHg 28%
06:00 +24°C° 0 mm 2 m/S 666 mmHg 25%
07:00 +26°C° 0 mm 2 m/S 667 mmHg 23%
08:00 +27°C° 0 mm 2 m/S 667 mmHg 21%
09:00 +29°C° 0 mm 3 m/S 667 mmHg 20%
10:00 +30°C° 0 mm 3 m/S 668 mmHg 18%
11:00 +31°C° 0 mm 3 m/S 668 mmHg 17%
12:00 +32°C° 0 mm 4 m/S 668 mmHg 17%
13:00 +33°C° 0 mm 4 m/S 668 mmHg 16%
14:00 +33°C° 0 mm 4 m/S 667 mmHg 16%
15:00 +33°C° 0 mm 3 m/S 667 mmHg 16%
16:00 +33°C° 0 mm 3 m/S 667 mmHg 15%
17:00 +29°C° 0 mm 3 m/S 667 mmHg 18%
18:00 +27°C° 0 mm 3 m/S 666 mmHg 21%
19:00 +25°C° 0 mm 2 m/S 666 mmHg 24%
20:00 +24°C° 0 mm 2 m/S 666 mmHg 24%
21:00 +24°C° 0 mm 3 m/S 666 mmHg 25%
22:00 +22°C° 0 mm 3 m/S 666 mmHg 25%
23:00 +22°C° 0 mm 3 m/S 665 mmHg 25%

Morgen, 24 Juni, Donnerstag

Zeit Temperatur Niederschläge Wind Luftdruck Luftfeuchtigkeit
00:00 +21°C° 0 mm 3 m/S 665 mmHg 26%
01:00 +21°C° 0 mm 3 m/S 665 mmHg 26%
02:00 +21°C° 0 mm 3 m/S 665 mmHg 26%
03:00 +20°C° 0 mm 3 m/S 664 mmHg 27%
04:00 +20°C° 0 mm 3 m/S 664 mmHg 27%
05:00 +23°C° 0 mm 2 m/S 665 mmHg 25%
06:00 +25°C° 0 mm 2 m/S 665 mmHg 23%
07:00 +27°C° 0 mm 2 m/S 666 mmHg 20%
08:00 +28°C° 0 mm 2 m/S 666 mmHg 19%
09:00 +30°C° 0 mm 2 m/S 666 mmHg 17%
10:00 +31°C° 0 mm 3 m/S 666 mmHg 16%
11:00 +33°C° 0 mm 3 m/S 666 mmHg 15%
12:00 +34°C° 0 mm 4 m/S 666 mmHg 14%
13:00 +34°C° 0 mm 4 m/S 666 mmHg 14%
14:00 +34°C° 0 mm 4 m/S 666 mmHg 14%
15:00 +34°C° 0 mm 4 m/S 666 mmHg 14%
16:00 +33°C° 0 mm 4 m/S 666 mmHg 14%
17:00 +30°C° 0 mm 4 m/S 666 mmHg 17%
18:00 +28°C° 0 mm 3 m/S 665 mmHg 21%
19:00 +26°C° 0 mm 3 m/S 665 mmHg 24%
20:00 +25°C° 0 mm 3 m/S 665 mmHg 25%
21:00 +24°C° 0 mm 3 m/S 665 mmHg 26%
22:00 +24°C° 0 mm 3 m/S 665 mmHg 27%
23:00 +22°C° 0 mm 3 m/S 664 mmHg 28%

übermorgen, 25 Juni, Freitag

Zeit Temperatur Niederschläge Wind Luftdruck Luftfeuchtigkeit
00:00 +22°C° 0 mm 3 m/S 664 mmHg 28%
01:00 +22°C° 0 mm 3 m/S 664 mmHg 29%
02:00 +21°C° 0 mm 3 m/S 664 mmHg 31%
03:00 +21°C° 0 mm 3 m/S 664 mmHg 33%
04:00 +20°C° 0 mm 3 m/S 664 mmHg 35%
05:00 +23°C° 0 mm 2 m/S 664 mmHg 32%
06:00 +25°C° 0 mm 2 m/S 665 mmHg 28%
07:00 +27°C° 0 mm 2 m/S 665 mmHg 25%
08:00 +28°C° 0 mm 2 m/S 665 mmHg 24%
09:00 +29°C° 0 mm 3 m/S 665 mmHg 22%
10:00 +31°C° 0 mm 3 m/S 665 mmHg 21%
11:00 +31°C° 0 mm 3 m/S 665 mmHg 21%
12:00 +33°C° 0 mm 3 m/S 665 mmHg 20%
13:00 +34°C° 0 mm 4 m/S 665 mmHg 20%
14:00 +33°C° 0 mm 4 m/S 665 mmHg 20%
15:00 +33°C° 0 mm 4 m/S 665 mmHg 20%
16:00 +33°C° 0 mm 4 m/S 664 mmHg 20%
17:00 +30°C° 0 mm 4 m/S 664 mmHg 24%
18:00 +28°C° 0 mm 3 m/S 664 mmHg 28%
19:00 +26°C° 0 mm 3 m/S 663 mmHg 32%
20:00 +25°C° 0 mm 3 m/S 663 mmHg 31%
21:00 +24°C° 0 mm 3 m/S 663 mmHg 30%
22:00 +22°C° 0 mm 3 m/S 663 mmHg 28%
23:00 +22°C° 0 mm 3 m/S 663 mmHg 29%

26 Juni, Samstag

Zeit Temperatur Niederschläge Wind Luftdruck Luftfeuchtigkeit
00:00 +21°C° 0 mm 3 m/S 662 mmHg 30%
01:00 +21°C° 0 mm 3 m/S 662 mmHg 31%
02:00 +21°C° 0 mm 3 m/S 662 mmHg 31%
03:00 +21°C° 0 mm 3 m/S 662 mmHg 31%
04:00 +20°C° 0 mm 3 m/S 662 mmHg 31%
05:00 +23°C° 0 mm 2 m/S 662 mmHg 28%
06:00 +25°C° 0 mm 2 m/S 663 mmHg 25%
07:00 +27°C° 0 mm 2 m/S 664 mmHg 23%
08:00 +28°C° 0 mm 2 m/S 664 mmHg 22%
09:00 +30°C° 0 mm 3 m/S 664 mmHg 21%
10:00 +31°C° 0 mm 3 m/S 664 mmHg 20%
11:00 +33°C° 0 mm 3 m/S 664 mmHg 19%
12:00 +33°C° 0 mm 4 m/S 664 mmHg 19%
13:00 +34°C° 0 mm 4 m/S 664 mmHg 18%
14:00 +34°C° 0.1 mm 4 m/S 664 mmHg 19%
15:00 +33°C° 0.1 mm 3 m/S 664 mmHg 19%
16:00 +33°C° 0.1 mm 3 m/S 664 mmHg 20%
17:00 +30°C° 0.1 mm 3 m/S 664 mmHg 23%
18:00 +28°C° 0.1 mm 3 m/S 664 mmHg 25%
19:00 +26°C° 0.1 mm 3 m/S 663 mmHg 27%
20:00 +25°C° 0 mm 3 m/S 663 mmHg 28%
21:00 +25°C° 0 mm 3 m/S 663 mmHg 29%
22:00 +24°C° 0 mm 3 m/S 663 mmHg 30%
23:00 +24°C° 0 mm 3 m/S 663 mmHg 30%

27 Juni, Sonntag

Zeit Temperatur Niederschläge Wind Luftdruck Luftfeuchtigkeit
00:00 +22°C° 0 mm 3 m/S 663 mmHg 30%
01:00 +22°C° 0 mm 3 m/S 663 mmHg 30%
02:00 +22°C° 0 mm 3 m/S 663 mmHg 30%
03:00 +22°C° 0 mm 3 m/S 663 mmHg 30%
04:00 +22°C° 0 mm 3 m/S 663 mmHg 29%
05:00 +25°C° 0 mm 2 m/S 664 mmHg 26%
06:00 +27°C° 0 mm 1 m/S 664 mmHg 24%
07:00 +27°C° 0 mm 0 m/S 665 mmHg 21%
08:00 +31°C° 0 mm 1 m/S 665 mmHg 19%
09:00 +32°C° 0 mm 2 m/S 666 mmHg 18%
10:00 +34°C° 0 mm 3 m/S 666 mmHg 16%
11:00 +35°C° 0 mm 3 m/S 666 mmHg 16%
12:00 +35°C° 0 mm 4 m/S 666 mmHg 15%
13:00 +36°C° 0 mm 4 m/S 666 mmHg 15%
14:00 +35°C° 0.1 mm 4 m/S 666 mmHg 16%
15:00 +35°C° 0.1 mm 3 m/S 666 mmHg 18%
16:00 +34°C° 0.1 mm 3 m/S 666 mmHg 19%
17:00 +31°C° 0 mm 3 m/S 665 mmHg 22%
18:00 +29°C° 0 mm 3 m/S 665 mmHg 25%
19:00 +28°C° 0 mm 2 m/S 664 mmHg 28%
20:00 +27°C° 0 mm 2 m/S 664 mmHg 28%
21:00 +26°C° 0 mm 2 m/S 664 mmHg 28%
22:00 +26°C° 0 mm 2 m/S 664 mmHg 28%
23:00 +25°C° 0 mm 2 m/S 664 mmHg 28%

28 Juni, Montag

Zeit Temperatur Niederschläge Wind Luftdruck Luftfeuchtigkeit
00:00 +25°C° 0 mm 2 m/S 664 mmHg 29%
01:00 +25°C° 0 mm 2 m/S 664 mmHg 29%
02:00 +24°C° 0 mm 2 m/S 664 mmHg 30%
03:00 +24°C° 0 mm 2 m/S 664 mmHg 31%
04:00 +24°C° 0 mm 3 m/S 664 mmHg 31%
05:00 +26°C° 0 mm 2 m/S 664 mmHg 28%
06:00 +28°C° 0 mm 1 m/S 665 mmHg 25%
07:00 +28°C° 0 mm 0 m/S 666 mmHg 21%
08:00 +31°C° 0 mm 1 m/S 666 mmHg 20%
09:00 +34°C° 0 mm 2 m/S 666 mmHg 18%
10:00 +35°C° 0 mm 3 m/S 666 mmHg 17%
11:00 +35°C° 0.1 mm 3 m/S 666 mmHg 18%
12:00 +34°C° 0.1 mm 3 m/S 666 mmHg 20%
13:00 +34°C° 0.1 mm 4 m/S 666 mmHg 22%
14:00 +34°C° 0.1 mm 3 m/S 666 mmHg 21%
15:00 +33°C° 0.1 mm 3 m/S 666 mmHg 21%
16:00 +33°C° 0.1 mm 3 m/S 666 mmHg 20%
17:00 +31°C° 0 mm 3 m/S 665 mmHg 22%
18:00 +29°C° 0 mm 2 m/S 665 mmHg 25%
19:00 +28°C° 0 mm 2 m/S 664 mmHg 27%
20:00 +27°C° 0 mm 2 m/S 664 mmHg 27%
21:00 +27°C° 0 mm 2 m/S 664 mmHg 26%
22:00 +26°C° 0 mm 2 m/S 664 mmHg 26%
23:00 +26°C° 0 mm 3 m/S 664 mmHg 26%
Mehr zeigen

Wir brauchen deine Erlaubnis

Meteoprog und unser Service Anbieter werden persönliche Daten aufbewahren, so wie Cookies, Geräte Bezeichnung oder ähnliche Technologien von deinem Gerät und Prozess, so wie Persönliche Daten Inhalte und Werbungen, genauso wie social Media und den Verkehr zu analysieren.

  • Aufbewahrung und/oder Zugang zu deiner Geräte Informationen.

    Cookies, Geräte Bezeichnung oder andere Informationen, können aufbewahrt oder Zugang zu deinem Gerät erhalten, für den Grund, der oben angegeben wird.

  • Personalisierte Werbung und Inhalte, Messungen, Einblick in das Publikum und Produkt Entwicklung.

    Werbungen und Inhalte können personalisiert werden, basierend auf ein Profil. Mehr Daten können besser personalisierte Werbungen und Inhalte hinzufügen. Werbung und Inhalte können gezeigt und gemessen werden. Einblicke über das Publikum, welche die Werbung gesehen haben und den Inhalt, können abgeleitet werden. So wie Daten können genutzt werden, um es zu verbessern oder die Benutzer Erfahrung zu verbessern das System und die Software.

Wenn du “Ich stimme zu” klickst, erlaubst du uns, die Cookies zu benutzen die Geräte Bezeichnung, den Web oder ähnliche Technologien zu benutzen. Deine Settings, können in deinem Gerät bei deinem Browser geändert werden.

Für den bestimmten Zweck, berechtigten Interessen beruhen darauf, mehr als auf den Inhalt. Du kannst mehr darüber in unseren Privaten und Cookie Politik lesen.